Regional Weather Roundup
Issued by NWS

Home | Current Version | Previous Version | Graphics & Text | Print | Product List | Glossary On
Versions: 1 2 3 4 5 6 7 8 9 10 11 12 13 14 15 16 17 18 19 20 21 22 23 24 25 26 27
000
ASUS45 KBOU 260407
RWRCO

WEATHER ROUNDUP FOR COLORADO
NATIONAL WEATHER SERVICE DENVER/BOULDER CO
1000 PM MDT SUN JUN 25 2017

NOTE: "FAIR" INDICATES FEW OR NO CLOUDS BELOW 12000 FEET WITH NO
SIGNIFICANT WEATHER AND/OR OBSTRUCTIONS TO VISIBILITY.

COZ001>005-013-030-031-260500-
...NORTHWEST COLORADO...

CITY           SKY/WX    TMP DP  RH WIND       PRES   REMARKS
CRAIG          FAIR      59  36  42 CALM      30.28R
HAYDEN         FAIR      63  30  29 E7        30.31R
MEEKER         FAIR      66  33  29 E5        30.28R
RABBIT EARS PA FAIR      50  25  37 NE9G16    30.59S
STEAMBOAT SPGS FAIR      62  33  33 CALM      30.33R
WALDEN         FAIR      54  25  32 NE6       30.45R
$$

COZ006>008-011-260500-
...WEST CENTRAL VALLEYS...

CITY           SKY/WX    TMP DP  RH WIND       PRES   REMARKS
GRAND JUNCTION FAIR      85  27  12 NE18      30.09R
MONTROSE       FAIR      70  34  26 E9        30.19R
EAGLE          FAIR      71  30  21 E9        30.32R
RIFLE          FAIR      74  27  17 SE6       30.20R
DELTA          FAIR      82  27  13 N12       30.13R
NUCLA          FAIR      77  18  10 CALM      30.22R
$$

COZ017>023-064>068-260500-
...SOUTHWEST COLORADO...

CITY           SKY/WX    TMP DP  RH WIND       PRES   REMARKS
DURANGO        FAIR      72  24  16 SW5       30.22R
CORTEZ         FAIR      73  24  16 N5        30.18R
PAGOSA SPRINGS FAIR      70  34  26 SE5       30.34R
TELLURIDE      FAIR      67  23  19 S5        30.48R
WOLF CREEK PAS FAIR      54  16  22 NW3       30.72R
$$

COZ009-010-012-014-032>034-037-058>063-260500-
...CENTRAL COLORADO...

CITY           SKY/WX    TMP DP  RH WIND       PRES   REMARKS
ASPEN          FAIR      59  31  34 S6        30.37R
BUENA VISTA    FAIR      64  46  52 S6        30.43R
COPPER MTN     FAIR      54  27  35 W7        30.70R
BERTHOUD PASS  FAIR      43  30  61 NW16G25   30.72S
COTTONWOOD PAS FAIR      59  45  58 SE9       30.56R
GUNNISON       FAIR      63  35  35 N9        30.34R
KREMMLING      NOT AVBL
LEADVILLE      FAIR      55  25  31 N6        30.52R
MONARCH PASS   MIX PCPN  45  45 100 NE24      30.77R VSB 1/2
SALIDA         FAIR      65  53  63 SE14G23   30.46R
SUNLIGHT       FAIR      54  19  26 N6        30.63R
WILKERSON PASS FOG       45  43  93 E9G16     30.68R VSB 1/4
$$

COZ069>075-260500-
...SAN LUIS VALLEY/SANGRE DE CRISTO MOUNTAINS...

CITY           SKY/WX    TMP DP  RH WIND       PRES   REMARKS
ALAMOSA        FAIR      63  49  60 E21G26    30.31R
DEL NORTE      FAIR      63  46  52 N6        30.37R
LA VETA PASS   FOG       48  46  93 N15       30.69R VSB<1/4
SAGUACHE       FAIR      63  41  45 S13       30.35R
$$

COZ035-036-038>040-260500-
...NORTHERN COLORADO FRONT RANGE...

CITY           SKY/WX    TMP DP  RH WIND       PRES   REMARKS
DENVER INTL AP MOCLDY    61  52  72 E13       30.33R
DMNS CITY PARK   N/A     65  53  65 E13G18    30.33R
AURORA         MOCLDY    60  54  80 E12       30.35R
FRONT RANGE AP FAIR      63  54  72 E14G20    30.35R
ERIE MUNI ARPT CLOUDY    66  54  64 SE7       30.32R
BOULDER MUN AP CLOUDY    64  52  63 CALM      30.33R
CENTENNIAL     FAIR      62  53  72 NE6       30.35R
BROOMFIELD     CLOUDY    66  54  63 E6        30.35R
FORT COLLINS   FAIR      63  52  67 SE6       30.32R
LONGMONT       MOCLDY    61  52  72 W6        30.34R
$$

COZ041-046-047-076>085-087-088-260500-
...PIKES PEAK/PALMER DIVIDE AND SOUTHERN FOOTHILLS...

CITY           SKY/WX    TMP DP  RH WIND       PRES   REMARKS
COLO. SPRINGS  CLOUDY    61  59  93 SE9       30.39R
A. F. ACADEMY  CLOUDY    61  54  78 SE9       30.39R
SCHRIEVER AFB  CLOUDY    59  56  91 SE12      30.39R
CHEYENNE MTN   RAIN      57  56  97 SE10      30.37R VSB 1/4
ELLICOTT       MOCLDY   N/A N/A N/A SE16      30.37R
FALCON           N/A     58  55  88 SE12G17   30.42S
FORT CARSON    CLOUDY    63  57  82 SE10      30.36R
LIMON          CLOUDY    59  55  87 SE13      30.35S
MONUMENT HILL  CLOUDY    55  52  88 SE10      30.43R
CANON CITY     CLOUDY    68  61  77 E13       30.33R
WALSENBURG     CLOUDY    64  61  88 N7        30.36R
TRINIDAD       FAIR      65  56  72 W13       30.29R
$$

COZ042>045-048>051-090-091-260500-
...NORTHEAST COLORADO...

CITY           SKY/WX    TMP DP  RH WIND       PRES   REMARKS
GREELEY ARPT   FAIR      62  55  77 SE7       30.32R
AKRON          FAIR      57  52  83 S10       30.32R
BURLINGTON     CLOUDY    60  59  96 SE6       30.32R
WRAY           CLOUDY    61  55  82 S6        30.30R
YUMA           FAIR      55  54  94 S5        30.31R
STERLING       FAIR      59  54  82 S5        30.28R
HOLYOKE        NOT AVBL
FORT MORGAN    FAIR      58  53  85 S5        30.32R
$$

COZ086-089-092>099-260500-
...SOUTHEAST COLORADO...

CITY           SKY/WX    TMP DP  RH WIND       PRES   REMARKS
PUEBLO         CLOUDY    68  58  70 E14       30.29R
LA JUNTA       CLOUDY    66  60  81 E14       30.27R
LAMAR          CLOUDY    64  58  80 E10       30.25R
SPRINGFIELD      N/A     61  59  93 SE13      30.27R
$$




USA.gov is the U.S. government's official web portal to all federal, state and local government web resources and services.